Time,TemperatureF,DewpointF,PressureIn,WindDirection,WindDirectionDegrees,WindSpeedMPH,WindSpeedGustMPH,Humidity,HourlyPrecipIn,Conditions,Clouds,dailyrainin,SoftwareType,DateUTC
2015-09-04 00:03:00,78.4,73.9,29.91,East,95,0.0,0.0,86,0.00,,CLR,0.00,VWS V15.00,2015-09-04 04:03:00,
2015-09-04 00:08:00,78.2,74.0,29.91,East,95,0.0,0.0,87,0.00,,CLR,0.00,VWS V15.00,2015-09-04 04:08:00,
2015-09-04 00:13:00,78.1,74.3,29.91,East,95,0.0,0.0,88,0.00,,CLR,0.00,VWS V15.00,2015-09-04 04:13:00,
2015-09-04 00:18:00,78.0,74.2,29.91,East,95,0.0,0.0,88,0.00,,CLR,0.00,VWS V15.00,2015-09-04 04:18:00,
2015-09-04 00:23:00,77.9,74.4,29.91,East,95,0.0,0.0,89,0.00,,CLR,0.00,VWS V15.00,2015-09-04 04:23:00,
2015-09-04 00:29:00,77.9,74.7,29.91,East,95,0.0,0.0,90,0.00,,CLR,0.00,VWS V15.00,2015-09-04 04:29:00,
2015-09-04 00:34:00,77.9,75.1,29.91,East,95,0.0,0.0,91,0.00,,CLR,0.00,VWS V15.00,2015-09-04 04:34:00,
2015-09-04 00:39:00,77.9,74.7,29.91,East,95,0.0,0.0,90,0.00,,CLR,0.00,VWS V15.00,2015-09-04 04:39:00,
2015-09-04 00:44:00,77.8,74.6,29.91,East,95,0.0,0.0,90,0.00,,CLR,0.00,VWS V15.00,2015-09-04 04:44:00,
2015-09-04 00:49:00,77.7,74.9,29.91,East,95,0.0,0.0,91,0.00,,CLR,0.00,VWS V15.00,2015-09-04 04:49:00,
2015-09-04 00:54:00,77.6,74.8,29.91,East,95,0.0,0.0,91,0.00,,CLR,0.00,VWS V15.00,2015-09-04 04:54:00,
2015-09-04 00:59:00,77.5,74.7,29.91,East,95,0.0,0.0,91,0.00,,CLR,0.00,VWS V15.00,2015-09-04 04:59:00,
2015-09-04 01:04:00,77.4,74.9,29.91,East,95,0.0,0.0,92,0.00,,CLR,0.00,VWS V15.00,2015-09-04 05:04:00,
2015-09-04 01:09:00,77.3,74.8,29.91,East,95,0.0,0.0,92,0.00,,CLR,0.00,VWS V15.00,2015-09-04 05:09:00,
2015-09-04 01:14:00,77.2,75.0,29.91,East,95,0.0,0.0,93,0.00,,CLR,0.00,VWS V15.00,2015-09-04 05:14:00,
2015-09-04 01:19:00,77.1,74.9,29.91,East,95,0.0,0.0,93,0.00,,CLR,0.00,VWS V15.00,2015-09-04 05:19:00,
2015-09-04 01:24:00,77.1,75.2,29.91,East,95,0.0,0.0,94,0.00,,CLR,0.00,VWS V15.00,2015-09-04 05:24:00,
2015-09-04 01:29:00,77.1,75.2,29.91,East,95,0.0,0.0,94,0.00,,CLR,0.00,VWS V15.00,2015-09-04 05:29:00,
2015-09-04 01:34:00,77.0,75.1,29.91,East,95,0.0,0.0,94,0.00,,CLR,0.00,VWS V15.00,2015-09-04 05:34:00,
2015-09-04 01:39:00,76.9,75.1,29.91,East,95,0.0,0.0,94,0.00,,CLR,0.00,VWS V15.00,2015-09-04 05:39:00,
2015-09-04 01:44:00,76.8,74.9,29.91,East,95,0.0,0.0,94,0.00,,CLR,0.00,VWS V15.00,2015-09-04 05:44:00,
2015-09-04 01:49:00,76.7,74.8,29.91,East,95,0.0,0.0,94,0.00,,CLR,0.00,VWS V15.00,2015-09-04 05:49:00,
2015-09-04 01:54:00,76.6,74.8,29.91,East,95,0.0,0.0,94,0.00,,CLR,0.00,VWS V15.00,2015-09-04 05:54:00,
2015-09-04 01:59:00,76.5,74.7,29.91,East,95,0.0,0.0,94,0.00,,CLR,0.00,VWS V15.00,2015-09-04 05:59:00,
2015-09-04 02:04:00,76.4,74.9,29.91,East,95,0.0,0.0,95,0.00,,CLR,0.00,VWS V15.00,2015-09-04 06:04:00,
2015-09-04 02:09:00,76.6,75.1,29.91,East,95,0.0,0.0,95,0.00,,CLR,0.00,VWS V15.00,2015-09-04 06:09:00,
2015-09-04 02:14:00,76.6,75.1,29.91,East,95,0.0,0.0,95,0.00,,CLR,0.00,VWS V15.00,2015-09-04 06:14:00,
2015-09-04 02:19:00,76.5,75.0,29.90,East,95,0.0,0.0,95,0.00,,CLR,0.00,VWS V15.00,2015-09-04 06:19:00,
2015-09-04 02:25:00,76.4,74.9,29.90,East,95,0.0,0.0,95,0.00,,CLR,0.00,VWS V15.00,2015-09-04 06:25:00,
2015-09-04 02:30:00,76.5,75.0,29.90,East,95,0.0,0.0,95,0.00,,CLR,0.00,VWS V15.00,2015-09-04 06:30:00,
2015-09-04 02:35:00,76.4,74.9,29.90,East,95,0.0,0.0,95,0.00,,CLR,0.00,VWS V15.00,2015-09-04 06:35:00,
2015-09-04 02:40:00,76.5,75.0,29.90,East,95,0.0,0.0,95,0.00,,CLR,0.00,VWS V15.00,2015-09-04 06:40:00,
2015-09-04 02:45:00,76.4,74.9,29.89,East,95,0.0,0.0,95,0.00,,CLR,0.00,VWS V15.00,2015-09-04 06:45:00,
2015-09-04 02:50:00,76.4,74.9,29.90,East,95,0.0,0.0,95,0.00,,CLR,0.00,VWS V15.00,2015-09-04 06:50:00,
2015-09-04 02:55:00,76.3,74.8,29.90,East,95,0.0,0.0,95,0.00,,CLR,0.00,VWS V15.00,2015-09-04 06:55:00,
2015-09-04 03:00:00,76.2,74.7,29.90,East,95,0.0,0.0,95,0.00,,CLR,0.00,VWS V15.00,2015-09-04 07:00:00,
2015-09-04 03:05:00,76.1,74.6,29.90,East,95,0.0,0.0,95,0.00,,CLR,0.00,VWS V15.00,2015-09-04 07:05:00,
2015-09-04 03:10:00,76.1,74.6,29.90,East,95,0.0,0.0,95,0.00,,CLR,0.00,VWS V15.00,2015-09-04 07:10:00,
2015-09-04 03:15:00,76.1,74.6,29.90,East,95,0.0,0.0,95,0.00,,CLR,0.00,VWS V15.00,2015-09-04 07:15:00,
2015-09-04 03:20:00,76.1,74.6,29.90,East,95,0.0,0.0,95,0.00,,CLR,0.00,VWS V15.00,2015-09-04 07:20:00,
2015-09-04 03:25:00,75.9,74.4,29.90,East,95,0.0,0.0,95,0.00,,CLR,0.00,VWS V15.00,2015-09-04 07:25:00,
2015-09-04 03:30:00,75.9,74.4,29.90,East,95,0.0,0.0,95,0.00,,CLR,0.00,VWS V15.00,2015-09-04 07:30:00,
2015-09-04 03:35:00,75.7,74.2,29.90,East,95,0.0,0.0,95,0.00,,CLR,0.00,VWS V15.00,2015-09-04 07:35:00,
2015-09-04 03:40:00,75.6,74.1,29.89,East,95,0.0,0.0,95,0.00,,CLR,0.00,VWS V15.00,2015-09-04 07:40:00,
2015-09-04 03:45:00,75.5,74.0,29.89,East,95,0.0,0.0,95,0.00,,CLR,0.00,VWS V15.00,2015-09-04 07:45:00,
2015-09-04 03:50:00,75.6,74.1,29.89,East,95,0.0,0.0,95,0.00,,CLR,0.00,VWS V15.00,2015-09-04 07:50:00,
2015-09-04 03:55:00,75.5,74.0,29.89,East,95,0.0,0.0,95,0.00,,CLR,0.00,VWS V15.00,2015-09-04 07:55:00,
2015-09-04 04:00:00,75.4,73.9,29.89,East,95,0.0,0.0,95,0.00,,CLR,0.00,VWS V15.00,2015-09-04 08:00:00,
2015-09-04 04:05:00,75.3,73.8,29.89,East,95,0.0,0.0,95,0.00,,CLR,0.00,VWS V15.00,2015-09-04 08:05:00,
2015-09-04 04:10:00,75.3,74.1,29.89,East,95,0.0,0.0,96,0.00,,CLR,0.00,VWS V15.00,2015-09-04 08:10:00,
2015-09-04 04:15:00,75.4,74.2,29.89,East,95,0.0,0.0,96,0.00,,CLR,0.00,VWS V15.00,2015-09-04 08:15:00,
2015-09-04 04:20:00,75.4,74.2,29.89,East,95,0.0,0.0,96,0.00,,CLR,0.00,VWS V15.00,2015-09-04 08:20:00,
2015-09-04 04:26:00,75.4,74.2,29.89,East,95,0.0,0.0,96,0.00,,CLR,0.00,VWS V15.00,2015-09-04 08:26:00,
2015-09-04 04:31:00,75.4,74.5,29.90,East,95,0.0,0.0,97,0.00,,CLR,0.00,VWS V15.00,2015-09-04 08:31:00,
2015-09-04 04:36:00,75.5,74.6,29.90,East,95,0.0,0.0,97,0.00,,CLR,0.00,VWS V15.00,2015-09-04 08:36:00,
2015-09-04 04:41:00,75.7,74.8,29.90,East,95,0.0,0.0,97,0.00,,CLR,0.00,VWS V15.00,2015-09-04 08:41:00,
2015-09-04 04:46:00,75.6,74.7,29.90,East,95,0.0,0.0,97,0.00,,CLR,0.00,VWS V15.00,2015-09-04 08:46:00,
2015-09-04 04:51:00,75.6,74.7,29.90,East,95,0.0,0.0,97,0.00,,CLR,0.00,VWS V15.00,2015-09-04 08:51:00,
2015-09-04 04:56:00,75.5,74.6,29.90,East,95,0.0,0.0,97,0.00,,CLR,0.00,VWS V15.00,2015-09-04 08:56:00,
2015-09-04 05:01:00,75.5,74.6,29.90,East,95,0.0,0.0,97,0.00,,CLR,0.00,VWS V15.00,2015-09-04 09:01:00,
2015-09-04 05:06:00,75.4,74.5,29.90,East,95,0.0,0.0,97,0.00,,CLR,0.00,VWS V15.00,2015-09-04 09:06:00,
2015-09-04 05:11:00,75.4,74.5,29.90,East,95,0.0,0.0,97,0.00,,CLR,0.00,VWS V15.00,2015-09-04 09:11:00,
2015-09-04 05:16:00,75.3,74.4,29.90,East,95,0.0,0.0,97,0.00,,CLR,0.00,VWS V15.00,2015-09-04 09:16:00,
2015-09-04 05:21:00,75.3,74.4,29.90,East,95,0.0,0.0,97,0.00,,CLR,0.00,VWS V15.00,2015-09-04 09:21:00,
2015-09-04 05:26:00,75.3,74.4,29.91,East,95,0.0,0.0,97,0.00,,CLR,0.00,VWS V15.00,2015-09-04 09:26:00,
2015-09-04 05:31:00,75.3,74.4,29.91,East,95,0.0,0.0,97,0.00,,CLR,0.00,VWS V15.00,2015-09-04 09:31:00,
2015-09-04 05:36:00,75.4,74.8,29.91,East,95,0.0,0.0,98,0.00,,CLR,0.00,VWS V15.00,2015-09-04 09:36:00,
2015-09-04 05:41:00,75.5,74.9,29.91,East,95,0.0,0.0,98,0.00,,CLR,0.00,VWS V15.00,2015-09-04 09:41:00,
2015-09-04 05:46:00,75.7,75.1,29.91,East,95,0.0,0.0,98,0.00,,CLR,0.00,VWS V15.00,2015-09-04 09:46:00,
2015-09-04 05:51:00,75.8,75.2,29.91,East,95,0.0,0.0,98,0.00,,CLR,0.00,VWS V15.00,2015-09-04 09:51:00,
2015-09-04 05:56:00,75.8,75.2,29.91,East,95,0.0,0.0,98,0.00,,CLR,0.00,VWS V15.00,2015-09-04 09:56:00,
2015-09-04 06:01:00,75.9,75.3,29.91,East,95,0.0,0.0,98,0.00,,CLR,0.00,VWS V15.00,2015-09-04 10:01:00,
2015-09-04 06:06:00,76.0,75.4,29.91,East,95,0.0,0.0,98,0.00,,CLR,0.00,VWS V15.00,2015-09-04 10:06:00,
2015-09-04 06:13:00,76.0,75.4,29.91,East,95,0.0,0.0,98,0.00,,CLR,0.00,VWS V15.00,2015-09-04 10:13:00,
2015-09-04 06:18:00,75.9,75.3,29.91,East,95,0.0,0.0,98,0.00,,CLR,0.00,VWS V15.00,2015-09-04 10:18:00,
2015-09-04 06:22:00,76.0,75.4,29.91,East,95,0.0,0.0,98,0.00,,CLR,0.00,VWS V15.00,2015-09-04 10:22:00,
2015-09-04 06:25:00,76.0,75.4,29.91,East,95,0.0,0.0,98,0.00,,CLR,0.00,VWS V15.00,2015-09-04 10:25:00,
2015-09-04 06:30:00,75.9,75.3,29.91,East,95,0.0,0.0,98,0.00,,CLR,0.00,VWS V15.00,2015-09-04 10:30:00,
2015-09-04 06:31:00,75.9,75.3,29.91,East,95,0.0,0.0,98,0.00,,CLR,0.00,VWS V15.00,2015-09-04 10:31:00,
2015-09-04 06:36:00,75.9,75.3,29.92,East,95,0.0,0.0,98,0.00,,CLR,0.00,VWS V15.00,2015-09-04 10:36:00,
2015-09-04 06:41:00,75.8,75.2,29.92,East,95,0.0,0.0,98,0.00,,CLR,0.00,VWS V15.00,2015-09-04 10:41:00,
2015-09-04 06:46:00,75.8,75.2,29.92,East,95,0.0,0.0,98,0.00,,CLR,0.00,VWS V15.00,2015-09-04 10:46:00,
2015-09-04 06:52:00,75.7,75.1,29.92,East,95,0.0,0.0,98,0.00,,CLR,0.00,VWS V15.00,2015-09-04 10:52:00,
2015-09-04 06:57:00,75.6,75.0,29.92,East,95,0.0,0.0,98,0.00,,CLR,0.00,VWS V15.00,2015-09-04 10:57:00,
2015-09-04 07:02:00,75.7,75.1,29.92,East,95,0.0,0.0,98,0.00,,CLR,0.00,VWS V15.00,2015-09-04 11:02:00,
2015-09-04 07:07:00,75.7,75.1,29.92,East,95,0.0,0.0,98,0.00,,CLR,0.00,VWS V15.00,2015-09-04 11:07:00,
2015-09-04 07:12:00,75.9,75.3,29.93,East,95,0.0,0.0,98,0.00,,CLR,0.00,VWS V15.00,2015-09-04 11:12:00,
2015-09-04 07:17:00,76.1,75.5,29.93,East,95,0.0,0.0,98,0.00,,CLR,0.00,VWS V15.00,2015-09-04 11:17:00,
2015-09-04 07:22:00,76.2,75.6,29.93,East,95,0.0,0.0,98,0.00,,CLR,0.00,VWS V15.00,2015-09-04 11:22:00,
2015-09-04 07:27:00,76.3,75.7,29.93,East,95,0.0,0.0,98,0.00,,CLR,0.00,VWS V15.00,2015-09-04 11:27:00,
2015-09-04 07:32:00,76.4,75.8,29.93,East,95,0.0,0.0,98,0.00,,CLR,0.00,VWS V15.00,2015-09-04 11:32:00,
2015-09-04 07:37:00,76.6,76.0,29.93,East,95,0.0,0.0,98,0.00,,CLR,0.00,VWS V15.00,2015-09-04 11:37:00,
2015-09-04 07:42:00,77.1,76.5,29.94,East,95,0.0,0.0,98,0.00,,CLR,0.00,VWS V15.00,2015-09-04 11:42:00,
2015-09-04 07:47:00,77.7,77.1,29.94,East,95,0.0,0.0,98,0.00,,CLR,0.00,VWS V15.00,2015-09-04 11:47:00,
2015-09-04 07:52:00,78.1,77.2,29.94,ENE,72,0.0,1.0,97,0.00,,CLR,0.00,VWS V15.00,2015-09-04 11:52:00,
2015-09-04 07:57:00,78.5,77.3,29.94,ENE,72,0.0,1.0,96,0.00,,CLR,0.00,VWS V15.00,2015-09-04 11:57:00,
2015-09-04 08:02:00,78.9,77.7,29.94,ENE,72,0.0,0.0,96,0.00,,CLR,0.00,VWS V15.00,2015-09-04 12:02:00,
2015-09-04 08:07:00,79.2,77.7,29.94,ENE,72,0.0,1.0,95,0.00,,CLR,0.00,VWS V15.00,2015-09-04 12:07:00,
2015-09-04 08:12:00,79.3,77.8,29.94,ENE,72,0.0,1.0,95,0.00,,CLR,0.00,VWS V15.00,2015-09-04 12:12:00,
2015-09-04 08:17:00,79.5,77.9,29.94,ENE,72,0.0,1.0,95,0.00,,CLR,0.00,VWS V15.00,2015-09-04 12:17:00,
2015-09-04 08:22:00,79.7,77.8,29.94,ENE,72,0.0,1.0,94,0.00,,CLR,0.00,VWS V15.00,2015-09-04 12:22:00,
2015-09-04 08:27:00,79.9,78.0,29.94,ENE,72,0.0,1.0,94,0.00,,CLR,0.00,VWS V15.00,2015-09-04 12:27:00,
2015-09-04 08:32:00,80.0,78.1,29.94,ENE,72,0.0,1.0,94,0.00,,CLR,0.00,VWS V15.00,2015-09-04 12:32:00,
2015-09-04 08:37:00,80.2,78.0,29.94,ENE,72,0.0,1.0,93,0.00,,CLR,0.00,VWS V15.00,2015-09-04 12:37:00,
2015-09-04 08:43:00,80.5,78.3,29.94,ENE,72,0.0,1.0,93,0.00,,CLR,0.00,VWS V15.00,2015-09-04 12:43:00,
2015-09-04 08:48:00,80.6,78.1,29.95,East,83,0.0,1.0,92,0.00,,CLR,0.00,VWS V15.00,2015-09-04 12:48:00,